Regional Weather Roundup
Issued by NWS

Home | Current Version | Previous Version | Text Only | Print | Product List | Glossary On
Versions: 1 2 3 4 5 6 7 8 9 10 11 12 13 14 15 16 17 18 19 20 21 22 23 24 25 26 27 28 29 30 31 32 33 34 35 36 37 38 39 40 41 42 43 44 45 46 47 48 49 50
000
ASUS44 KLUB 260910
RWRTX
WEST TEXAS WEATHER ROUNDUP
NATIONAL WEATHER SERVICE LUBBOCK TX
400 AM CDT WED JUL 26 2017

NOTE: "FAIR" INDICATES FEW OR NO CLOUDS BELOW 12,000 FEET WITH NO
SIGNIFICANT WEATHER AND/OR OBSTRUCTIONS TO VISIBILITY.

TXZ004-006>008-010-012-014-016-OKZ002-261000-
TEXAS PANHANDLE/OKLAHOMA PANHANDLE

CITY           SKY/WX    TMP DP  RH WIND       PRES   REMARKS
AMARILLO       PTCLDY    76  61  59 S16       30.10S
BORGER         PTCLDY    81  62  52 S15G23    30.04F
CANADIAN       MOCLDY    82  67  60 S17G23    30.00F
DALHART        PTCLDY    75  57  53 S10       30.08F
DUMAS          PTCLDY    74  60  60 S10       30.07F
GUYMON         PTCLDY    79  63  57 S13       29.99F
HEREFORD       PTCLDY    76  62  60 SW9       30.13S
PAMPA          CLEAR     79  62  55 S13       30.08S
PERRYTON       PTCLDY    81  64  55 S12       30.02S
$$

TXZ026-029-035-045-048-261000-
SOUTHERN PANHANDLE/SOUTH PLAINS/ROLLING PLAINS

CITY           SKY/WX    TMP DP  RH WIND       PRES   REMARKS
CHILDRESS      CLEAR     81  63  54 S10       30.03S
SEMINOLE       CLEAR     73  60  65 SE5       30.12F
LUBBOCK        PTCLDY    80  60  50 S15       30.10S
PLAINVIEW      CLEAR     73  60  63 S9        30.10S
SNYDER         CLEAR     76  63  62 S8        30.09S
$$

TXZ052-054-060>062-072-078-127-140-154-169-261000-
PERMIAN BASIN/CONCHO VALLEY/BIG COUNTRY/EDWARDS PLATEAU

CITY           SKY/WX    TMP DP  RH WIND       PRES   REMARKS
ABILENE        CLEAR     79  68  69 S8        30.07R
BIG SPRING     CLEAR     79  65  61 S14       30.11S
BROWNWOOD      CLOUDY    77  68  73 SE5       30.07S
JUNCTION       CLEAR     77  70  79 S3        30.09S
MIDLAND        CLEAR     78  63  59 S10       30.10R
ODESSA         CLEAR     79  63  57 S12       30.11S
SAN ANGELO     CLEAR     79  68  69 S9        30.07S
SONORA         CLEAR     77  70  78 CALM      30.14S
SWEETWATER     CLEAR     79  65  62 S13       30.11S
WINK           CLOUDY    81  62  52 SE15      30.06F
$$

TXZ055-058-074-075-080-082-261000-
FAR WEST/SOUTHWEST MOUNTAINS/TRANS PECOS

CITY           SKY/WX    TMP DP  RH WIND       PRES   REMARKS
ALPINE         CLEAR     72  60  64 SW5       30.24F
DRYDEN           N/A     78  67  68 E10       30.05F
EL PASO        PTCLDY    83  64  52 W13       30.11S
FORT STOCKTON  CLEAR     77  64  64 SE13      30.08S
GUADALUPE PASS CLOUDY    74  58  57 CALM      30.25S
MARFA          CLEAR     64  61  90 N6        30.24S
PECOS          CLEAR     76  62  61 E6        30.05S
PRESIDIO       FAIR      83  61  47 N6        30.07F
$$

TXZ014-016-019-021>030-083-261000
TEXAS TECH WEST TEXAS MESONET/TEXAS PANHANDLE/NORTHERN SOUTH PLAINS

CITY           SKY/WX    TMP DP  RH WIND       PRES   REMARKS
ABERNATHY 5ENE   N/A     75  60  58 S9        30.12S
AMARILLO 9NNE    N/A     80  61  52 S16       30.07R
AMARILLO 7SSE    N/A     76  60  58 S14       30.11S
AMHERST 1NE      N/A     71  60  69 S7        30.13S
BOOTLEG 11WNW    N/A     74  57  56 S16       30.16S
CANADIAN 6E      N/A     80  65  60 S10       30.00F
CAPROCK CYN SP   N/A     79  62  57 S9        30.07S
CHILDRESS 2NNE   N/A     81  62  51 S14       30.02S
CLARENDON 2WSW   N/A     76  62  61 S10       30.06F
CLAUDE 12SW      N/A     80  60  51 SW9       30.10S
DIMMITT 2NE      N/A     71  60  68 S9        30.13S
FLOYDADA 2NNE    N/A     74  62  65 S9        30.11S
FRIONA 2NE       N/A     70  59  68 S10       30.15R
GOODLETT 3W      N/A     81  61  50 S8        30.01S
HART 3N          N/A     73  61  66 S8        30.13R
HEREFORD 2NW     N/A     74  57  55 S10       30.12S
MCLEAN 1E        N/A     77  61  58 S8        30.06S
MEMPHIS 1NE      N/A     79  63  57 S2        30.03S
MULESHOE 2SSW    N/A     71  60  68 S7        30.13S
OLTON 6S         N/A     73  60  65 S9        30.12R
PALO DURO SP     N/A     77  61  57 SW15      30.11S
PAMPA 2E         N/A     77  62  59 S10       30.07S
PLAINVIEW 1S     N/A     74  61  64 S9        30.10S
SILVERTON 7ESE   N/A     78  60  54 S10       30.10S
TULIA 2ENE       N/A     74  62  65 S10       30.11S
TURKEY 2WSW      N/A     79  64  59 S10       30.04F
UMBARGER 3NNE    N/A     76  60  57 S16       30.12S
$$

TXZ033>036-039>041-045>048-261000
TEXAS TECH WEST TEXAS MESONET/SOUTH PLAINS

CITY           SKY/WX    TMP DP  RH WIND       PRES   REMARKS
AIKEN 3WSW       N/A     73  62  68 S9        30.12S
ANDREWS 2NE      N/A     75  59  57 S9        30.12S
ANTON 6SSW       N/A     74  63  66 S9        30.11S
BROWNFIELD 2S    N/A     75  60  60 S8        30.11F
DENVR CTY 7WNW   N/A     73  57  57 S6        30.13S
GAIL 2ESE        N/A     78  60  54 S9        30.08S
LAMESA 2SE       N/A     74  61  63 SE7       30.11F
LEVELLAND 4S     N/A     74  59  60 S7        30.13
LUBBOCK 3WNW     N/A     79  58  48 S12       30.11S
MORTON 1ENE      N/A     73  60  64 S9        30.13S
ODONNELL 1N      N/A     78  57  49 S10       30.11S
PLAINS 3N        N/A     76  58  53 S8        30.14S
RALLS 1SE        N/A     73  60  63 S7        30.12S
REESE CENTER     N/A     75  59  56 S10       30.11S
SEAGRAVES 1SW    N/A     73  61  65 S6        30.12S
SEMINOLE 2NNE    N/A     71  58  64 SE6       30.11F
SLATON 2NE       N/A     78  59  53 S10       30.11R
SNYDER 3E        N/A     78  63  59 S10       30.09R
SUNDOWN 8SW      N/A     72  59  64 S7        30.13S
TAHOKA 3NNE      N/A     76  59  55 S9        30.11S
WOLFFORTH 6SSW   N/A     76  59  54 S10       30.12S
$$

TXZ031-032-036>038-042>044-261000-
TEXAS TECH WEST TEXAS MESONET/ROLLING PLAINS

CITY           SKY/WX    TMP DP  RH WIND       PRES   REMARKS
ASPERMONT 3NE    N/A     80  63  55 S8        30.04S
FLUVANNA 3WNW    N/A     76  59  55 S14       30.09S
GRAHAM 5SSW      N/A     79  60  52 S12       30.10R
GUTHRIE 10WSW    N/A     79  61  54 S10       30.04S
HASKELL 1NW      N/A     81  62  51 S9        30.03S
JAYTON 1SSE      N/A     77  63  63 S5        30.05S
KNOX CITY 3NW    N/A     81  62  51 S13       30.02S
LK A HENRY 1NW   N/A     79  59  51 SW6       30.07R
NORTHFIELD 1S    N/A     78  63  60 S9        30.03S
ODELL 4ENE       N/A     79  67  66 SE10      30.02S
PADUCAH 10SW     N/A     75  65  70 S8        30.04S
POST 1NE         N/A     80  59  49 S9        30.08S
RRING SPRGS 3N   N/A     76  64  65 S7        30.07S
SEYMOUR 3NW      N/A     80  64  57 SE8       30.02S
SPUR 1W          N/A     76  60  57 S1        30.05F
WEINERT 2NNE     N/A     81  66  59 S12       30.03S
WHITE RVR 6NE    N/A     76  60  56 S5        30.08S
$$

TXZ052-054-060>062-072-078-127-140-154-169-261000-
TEXAS TECH WEST TEXAS MESONET/PERMIAN BASIN/
CONCHO VALLEY/BIG COUNTRY/EDWARDS PLATEAU

CITY           SKY/WX    TMP DP  RH WIND       PRES   REMARKS
COYANOSA 2N      N/A     79  64  59 SE7       30.05F
JUNCTION 1SSW    N/A     76  71  83 S2        30.09S
MERTZON 3NNE     N/A     77  69  76 S6        30.09S
SAN ANGELO 7NW   N/A     78  66  67 S3        30.08R
STRLNG CT 4WSW   N/A     78  66  66 S8        30.09F
ST LAWRNCE 5SW   N/A     76  65  67 S7        30.11R
SWEETWATR 11SW   N/A     77  67  69 S12       30.11S
WALL 1E          N/A     78  70  75 S13       30.08S
$$

TXZ055-058-074-075-080-082-261000-
TEXAS TECH WEST TEXAS MESONET/FAR WEST/SOUTHWEST MOUNTAINS/TRANS PECOS

CITY           SKY/WX    TMP DP  RH WIND       PRES   REMARKS
PRSMN GAP BBNP   N/A     82  60  47 NE8       30.07S
GUADLPE MTN NP   N/A     72  57  58 CALM      30.26S
$$




USA.gov is the U.S. government's official web portal to all federal, state and local government web resources and services.